{"data":{"norad_id":37602,"intl_designator":"2011-021A","name":"TELSTAR 14R","alt_names":[],"object_type":"PAYLOAD","status":"ACTIVE","operator":null,"country":"CA","launch_date":"2011-05-20","launch_site_code":"TYMSC","launch_vehicle":null,"mission":null,"orbit_class":"UNKNOWN","rcs_meters":12.5893,"size_class":null,"mass_kg":null,"dimensions":null,"purposes":["comms"],"wikipedia_slug":null,"has_3d_model":false,"image_url":null,"decayed_at":null,"tle_current":{"epoch":"2026-07-31T15:21:21.637728Z","epoch_age_seconds":4412623,"freshness":"OLD","line1":"1 37602U 11021A   26212.63983377  .00000053  00000+0  00000+0 0  9998","line2":"2 37602   0.1225  85.4881 0007422 292.7434  21.5788  0.98983414 56277","mean_motion":0.98983414,"eccentricity":0.0007422,"inclination_deg":0.1225,"raan_deg":85.4881,"arg_perigee_deg":292.7434,"mean_anomaly_deg":21.5788,"bstar":0,"rev_number":5627,"period_min":1454.7891831656,"perigee_km":36120.118424302,"apogee_km":36183.24969068,"semimajor_km":42529.821057491,"source":"CELESTRAK","updated_at":"2026-08-01T09:00:41.074427Z"}}}